Regional Weather Roundup
Issued by NWS Sioux Falls, SD

Home | Current Version | Previous Version | Text Only | Print | Product List | Glossary Off
Versions: 1 2 3 4 5 6 7 8 9 10 11 12 13 14 15 16 17 18 19 20 21 22 23 24 25 26 27 28 29 30 31 32 33 34 35 36 37 38 39 40 41 42 43 44 45 46 47 48 49 50

000
ASUS43 KFSD 010802
RWRFSD

WEATHER ROUNDUP FOR SE SOUTH DAKOTA/SW MINNESOTA/NW IOWA
NATIONAL WEATHER SERVICE SIOUX FALLS SD
300 AM CDT MON SEP 01 2014

NOTE: "FAIR" INDICATES FEW OR NO CLOUDS BELOW 12,000 FEET WITH NO
SIGNIFICANT WEATHER AND OR OBSTRUCTIONS TO VISIBILITY.


SDZ038>040-050-052>070-010900-
SOUTHEAST SOUTH DAKOTA

CITY           SKY/WX    TMP DP  RH WIND       PRES   REMARKS
CHAMBERLAIN    CLEAR     60  58  92 NW9       29.76S
HURON          CLOUDY    61  60  97 W5        29.73R
MADISON        FAIR      59  59 100 NW6       29.73R
MITCHELL       LGT RAIN  62  61  96 NW12      29.76R FOG
SIOUX FALLS    PTCLDY    63  60  90 NW7       29.71R
WINNER         FAIR      59  57  93 W10       29.81R
YANKTON        MOCLDY    63  61  94 NW7       29.73S
$$

MNZ071-072-080-081-089-090-097-098-010900-
SOUTHWEST MINNESOTA

CITY           SKY/WX    TMP DP  RH WIND       PRES   REMARKS
FAIRMONT       CLOUDY    64  59  82 SW7       29.68R
JACKSON        CLOUDY    64  61  88 S7        29.69S
LUVERNE        MOCLDY    63  61  94 N7        29.70F
MARSHALL       CLOUDY    63  59  88 W7        29.69R
MONTEVIDEO     MOCLDY    63  63 100 NW5       29.68R
PIPESTONE      CLOUDY    63  61  94 NW5       29.72R
REDWOOD FALLS  CLOUDY    67  65  93 NW9       29.66R THUNDER
TRACY          CLOUDY    66  64  93 CALM      29.70R THUNDER
WINDOM         RAIN      66  64  94 SW3       29.69R
WORTHINGTON    MOCLDY    64  63  94 NW7       29.70S
$$

IAZ001>003-012>014-020>022-031-032-NEZ013-014-SDZ071-010900-
NORTHWEST IOWA

CITY           SKY/WX    TMP DP  RH WIND       PRES   REMARKS
CHEROKEE       CLOUDY    63  63 100 SW7       29.70S
DENISON        CLOUDY    66  66 100 SW6       29.69S
ESTHERVILLE    CLOUDY    63  63 100 SW9       29.68S
LE MARS        FOG       63  63 100 CALM      29.71R VSB 1/4
ORANGE CITY    PTCLDY    64  61  88 NW3       29.69S
SHELDON        CLOUDY    63  63 100 CALM      29.67F FOG
SIOUX CITY     PTCLDY    62  60  93 W3        29.71R
SPENCER        CLOUDY    64  63  96 S5        29.69S
STORM LAKE     MOCLDY    63  63 100 SW7       29.70S
$$

ABBREVIATIONS USED IN REMARKS
   TC - TEMPERATURE IN CELSIUS
  WCI - WIND CHILL INDEX
   HX - HEAT INDEX
  VSB - VISIBILITY



USA.gov is the U.S. government's official web portal to all federal, state and local government web resources and services.